Regional Weather Roundup
Issued by NWS Kansas City/Pleasant Hill, MO

Home | Current Version | Previous Version | Graphics & Text | Print | Product List | Glossary Off
Versions: 1 2 3 4 5 6 7 8 9 10 11 12 13 14 15 16 17 18 19 20 21 22 23 24 25 26 27 28 29 30 31 32 33 34 35 36 37 38 39 40 41 42 43 44 45 46 47 48 49 50

000
ASUS43 KEAX 300411
RWREAX

WEATHER ROUNDUP FOR EASTERN KANSAS AND NORTHWEST MISSOURI
NATIONAL WEATHER SERVICE KANSAS CITY/PLEASANT HILL MO
1000 PM CST THU JAN 29 2015

KSZ040-057-103>105-MOZ028-029-037-043-300500-
...KANSAS CITY METROPOLITAN AREA...

CITY           SKY/WX    TMP DP  RH WIND       PRES   REMARKS
K.C. INTL      CLEAR     28  22  78 N7        30.51R WCI  21
K.C. DOWNTOWN  CLEAR     32  23  69 CALM      30.52S
LEES SUMMIT    CLEAR     31  23  72 N7        30.51S WCI  24
OLATHE - IXD   CLEAR     25  21  85 N6        30.52S WCI  18
OLATHE - OJC   CLEAR     31  24  75 N5        30.50S WCI  26
LAWRENCE       CLEAR     24  19  81 N3        30.53S

$$

MOZ001>008-011>017-020>025-030>033-038>040-044>046-053-054-300500-
...NORTHERN AND CENTRAL MISSOURI...

CITY           SKY/WX    TMP DP  RH WIND       PRES   REMARKS
ST. JOSEPH     CLEAR     26  21  81 W6        30.54R WCI  19
MOSBY          CLEAR     30  23  74 NW3       30.52R
WARRENSBURG    CLEAR     32  25  74 NW5       30.51S WCI  27
WHITEMAN AFB   PTCLDY    33  24  70 N8        30.50R WCI  25
CLINTON        CLEAR     32  27  80 N7        30.51S WCI  26
SEDALIA        CLOUDY    36  25  64 NW15      30.51R WCI  27
WARSAW         NOT AVBL
MARSHALL       CLEAR     36  27  69 NW12      30.50R WCI  27
CHILLICOTHE      N/A     33  24  69 NW5       30.51R WCI  29
MOBERLY        PTCLDY    32  21  64 NW7       30.47R WCI  26
KIRKSVILLE     CLEAR     29  22  75 N12       30.45S WCI  19

$$

MOZ041-047>049-056>058-063>065-088>090-097-300500-
...EASTERN AND SOUTHERN MISSOURI...

CITY           SKY/WX    TMP DP  RH WIND       PRES   REMARKS
ST. LOUIS INTL CLOUDY    37  25  61 N12       30.42R WCI  29
SPIRIT OF STL  CLOUDY    37  25  61 NW12      30.42R WCI  29
COLUMBIA       CLOUDY    36  25  64 NW16      30.46R WCI  26
JEFFERSON CITY CLOUDY    38  26  62 NW12      30.47R WCI  30
MEXICO         CLOUDY    36  28  75 NW13      30.44R WCI  27
HANNIBAL       PTCLDY    32  19  59 NW12G17   30.45R WCI  23
ROLLA          CLOUDY    35  25  66 NW9       30.41S WCI  28
LEBANON        CLEAR     32  25  74 NW5       30.43F WCI  27
OSAGE BEACH    CLOUDY    37  23  56 NW8       30.46S WCI  31
SPRINGFIELD    CLEAR     28  23  81 NW8       30.46R WCI  20
BRANSON        PTCLDY    34  27  75 NW8       30.46S WCI  27
NEVADA         CLEAR     30  27  86 W3        30.53R
JOPLIN         CLEAR     33  26  75 N5        30.51R WCI  29
WEST PLAINS    CLEAR     36  26  67 N10       30.41S WCI  28

$$

IAZ060-094-KSZ022-034>040-054-083-096-NEZ052-066-093-300500-
...KANSAS...SOUTHEAST NEBRASKA AND IOWA...

CITY           SKY/WX    TMP DP  RH WIND       PRES   REMARKS
TOPEKA         CLEAR     25  22  88 CALM      30.54R
MANHATTAN      CLEAR     25  22  88 CALM      30.52F
EMPORIA        CLEAR     29  24  82 NW3       30.51S
CHANUTE        CLEAR     32  26  78 N6        30.52R WCI  26
WICHITA        FAIR      34  23  64 NW6       30.52S WCI  29
OMAHA          CLEAR     29  22  75 N12       30.54R WCI  19
LINCOLN        CLEAR     27  21  78 N5        30.55R WCI  22
FALLS CITY     CLEAR     25  19  78 NW3       30.53R
LAMONI         CLOUDY    31  21  66 NW20      30.48R WCI  19
DES MOINES     CLEAR     28  19  69 N14       30.50R WCI  17

$$



USA.gov is the U.S. government's official web portal to all federal, state and local government web resources and services.